Regional Weather Roundup
Issued by NWS

Home | Current Version | Previous Version | Graphics & Text | Print | Product List | Glossary On
Versions: 1 2 3 4 5 6 7 8 9 10 11 12 13 14 15 16 17 18 19 20 21 22 23 24 25 26 27 28 29 30 31 32 33 34 35 36 37 38 39 40 41 42 43 44 45 46 47 48 49 50
000
ASUS44 KMEG 211510
RWRTN
TENNESSEE HOURLY STATE WEATHER ROUNDUP
NATIONAL WEATHER SERVICE MEMPHIS TN
1000 AM CDT FRI JUL 21 2017

TNZ002-004-019-021-049-052-054-088>092-211600-
WEST TENNESSEE

CITY           SKY/WX    TMP DP  RH WIND       PRES   REMARKS
MEMPHIS INTL   MOSUNNY   91  78  65 SW7       30.05F HX 106
NWS MEMPHIS      N/A     90 N/A N/A MISG        N/A
JACKSON        SUNNY     90  75  61 W5        30.06F HX 100
SOMERVILLE       N/A     90  77  66 W5        30.05F HX 102
COVINGTON      SUNNY     90  79  70 SW5       30.05S HX 105
UNION CITY     SUNNY     88  79  74 SW8       30.03S HX 102
BOLIVAR        SUNNY     90  75  62 SW6       30.05F HX 100
PARIS          SUNNY     86  77  74 SW5       30.05S HX  97
HUNTINGDON     SUNNY     88  77  70 SW5       30.05S HX 100
LEXINGTON      SUNNY     88  75  66 CALM      30.06F HX  97
SELMER         SUNNY     88  75  66 CALM      30.06F HX  97
SAVANNAH       SUNNY     88  77  70 VRB3      30.05F HX 100
$$

TNZ008-025-027-028-033-062-065-066-211600-
NORTH MIDDLE TENNESSEE

CITY           SKY/WX    TMP DP  RH WIND       PRES   REMARKS
NASHVILLE      CLOUDY    90  74  59 CALM      30.08F HX  99
PORTLAND       SUNNY     88  73  62 VRB5      30.07S HX  96
CLARKSVILLE    SUNNY     87  75  67 VRB5      30.06S HX  96
SMYRNA         SUNNY     89  75  63 CALM      30.08F HX  99
COOKEVILLE     SUNNY     84  75  74 CALM      30.10S HX  92
GALLATIN       SUNNY     88  75  66 CALM      30.10S HX  97
CROSSVILLE     MOSUNNY   82  68  62 CALM      30.15S
$$

TNZ061-075-076-078-094-096-097-211600-
SOUTH MIDDLE TENNESSEE

CITY           SKY/WX    TMP DP  RH WIND       PRES   REMARKS
FAYETTEVILLE   SUNNY     86  75  70 E5        30.09S HX  95
TULLAHOMA      SUNNY     88  70  55 CALM      30.11S HX  92
WINCHESTER     SUNNY     90  72  55 CALM      30.10S HX  96
MCMINNVILLE    SUNNY     88  77  70 CALM      30.10S HX 100
COLUMBIA       SUNNY     86  75  70 CALM      30.06S HX  95
SHELBYVILLE    SUNNY     86  75  70 NW3       30.09S HX  95
$$

TNZ017-018-042-046-047-211600-
NORTHEAST TENNESSEE

CITY           SKY/WX    TMP DP  RH WIND       PRES   REMARKS
TRI CITIES     MOSUNNY   83  69  62 S6        30.12F
ELIZABETHTON   SUNNY     84  70  61 W5        30.12F
$$

TNZ012-013-036-069-073-074-211600-
CENTRAL EAST TENNESSEE

CITY           SKY/WX    TMP DP  RH WIND       PRES   REMARKS
KNOXVILLE      PTSUNNY   86  71  60 NW5       30.08S HX  91
OAK RIDGE      MOSUNNY   86  72  62 CALM      30.10S HX  92
DOWNTOWN KNOXV SUNNY     86  75  70 CALM      30.08S HX  95
GATLINBURG     SUNNY     86  66  51 VRB3      30.08S
MORRISTOWN     PTSUNNY   84  73  70 CALM      30.10S HX  91
JACKSBORO      SUNNY     84  75  74 CALM      30.13S HX  92
$$

TNZ083-085-099-211600-
SOUTHEAST TENNESSEE

CITY           SKY/WX    TMP DP  RH WIND       PRES   REMARKS
CHATTANOOGA    MOSUNNY   87  74  64 NW6       30.08S HX  95
DAYTON         SUNNY     86  77  74 CALM      30.07  HX  97
$$

SKY/WX REPORTED AS FAIR MEANS FEW OR NO CLOUDS BELOW
12 THOUSAND FEET.




USA.gov is the U.S. government's official web portal to all federal, state and local government web resources and services.